TIANMU-1 11

Last updated on Thu Nov 21 2024 00:02:20 GMT+0000 (Coordinated Universal Time)

1 58645U 23205A 24325.56367497 .00009056 00000+0 44352-3 0 9993 2 58645 97.3914 346.8417 0009687 213.0648 146.9982 15.18347911 50217
UTC large
Height (km)
Speed (km/s)
/
Latitude / Longitude
Inclination (degrees)
Orbital Period (minutes)
Azimuth
Elevation
Range (km)
Doppler Factor

Next 0 passes for location: London (51.5072 / 0.1276)

Sorry there are no passes over London.